Content
SEND FEEDBACK

Daily
Averages
Monthly
Summary
United States of America

BENTONVILLE, ARKANSAS


Home > North America > United States > Arkansas
Elevation: 1296 feet     Latitude: 36 20N     Longitude: 094 13W

WEATHER
 
SELECT A DAY
Number of Records: 445,871;   Date Range: 1/1/95 - 12/16/14
 
SHARE

PRINT THIS DATA

[ ← Previous Day ]
WEATHER ALMANAC - FEBRUARY 13, 2013
[ Next Day → ]
[ °C ]   °F
Weather ElementAverageHighLow
Temperature39.8 °F50 °F (2:55 pm)33.8 °F (12:35 am)
Dewpoint30.8 °F35.6 °F (11:55 am)28.4 °F (5:35 pm)
Humidity72.4 %93 % (8:15 am)46 % (5:35 pm)
Barometer29.95 in30.00 in (8:55 am)29.92 in (4:15 pm)
Wind Speed7.5 mph13.8 mph (2:15 pm)
Wind Gust17.3 mph (11:16 am)
Weather ElementAverage
Visibility8.1 mi
Wind DirectionWSW (256.6 °)

Weather ElementTotal
Precipitation0.01 in
Heating Degree Days23.1 (Base 65)
Averaged from 62 records on February 13, 2013
WEATHER CONDITIONS BREAKOUT
WIND DIRECTION BREAKOUT
WEATHER BY HOUR - FEBRUARY 13, 2013
[ °C ]   °F
Local TimeTemperatureDewpointHumidityBarometerVisibilityWind DirectionWind SpeedGust SpeedPrecipitationEventsConditions
12:35 AM33.8 °F30.2 °F87 %29.93 in5.0 miNorth (10°)4.6 mph0.01 inOvercast
1:15 AM33.8 °F30.2 °F87 %29.93 in3.0 miNorth (350°)5.8 mphOvercast
1:35 AM33.8 °F30.2 °F87 %29.94 in5.0 miNNW (340°)5.8 mphOvercast
1:55 AM33.8 °F30.2 °F87 %29.94 in7.0 miNorth (350°)8.1 mphOvercast
2:16 AM33.8 °F30.2 °F87 %29.93 in10.0 miNorth (360°)6.9 mphOvercast
2:35 AM33.8 °F30.2 °F87 %29.93 in10.0 miNorth (350°)5.8 mphOvercast
2:55 AM33.8 °F30.2 °F87 %29.93 in9.0 miNorth (350°)8.1 mphOvercast
3:35 AM33.8 °F30.2 °F87 %29.93 in5.0 miNorth (350°)9.2 mphOvercast
3:55 AM33.8 °F30.2 °F87 %29.93 in6.0 miNorth (350°)8.1 mphOvercast
4:15 AM33.8 °F30.2 °F87 %29.93 in6.0 miNNW (330°)3.5 mphOvercast
4:35 AM33.8 °F30.2 °F87 %29.94 in5.0 miNW (310°)3.5 mphOvercast
4:55 AM33.8 °F30.2 °F87 %29.93 in6.0 miCalmOvercast
5:15 AM33.8 °F30.2 °F87 %29.94 in7.0 miWNW (290°)4.6 mphOvercast
5:55 AM33.8 °F30.2 °F87 %29.95 in3.0 miWNW (300°)5.8 mphOvercast
6:15 AM33.8 °F30.2 °F87 %29.95 in2.0 miWest (280°)4.6 mphOvercast
6:35 AM33.8 °F30.2 °F87 %29.96 in1.0 miWNW (290°)5.8 mphOvercast
6:55 AM33.8 °F30.2 °F87 %29.97 in1.0 miWNW (290°)6.9 mphOvercast
7:15 AM33.8 °F30.2 °F87 %29.98 in0.2 miWest (280°)6.9 mphOvercast
7:35 AM33.8 °F30.2 °F87 %29.99 in0.2 miWest (270°)4.6 mphOvercast
8:15 AM33.8 °F32.0 °F93 %29.99 in4.0 miWest (260°)8.1 mphOvercast
8:35 AM33.8 °F32.0 °F93 %29.99 in7.0 miWest (260°)6.9 mphOvercast
8:55 AM35.6 °F32.0 °F87 %30.00 in7.0 miWSW (250°)8.1 mphOvercast
9:15 AM35.6 °F32.0 °F87 %30.00 in10.0 miWSW (240°)9.2 mphOvercast
9:35 AM35.6 °F33.8 °F93 %29.99 in10.0 miWSW (240°)9.2 mphOvercast
9:55 AM37.4 °F32.0 °F81 %29.99 in7.0 miSW (230°)10.4 mphOvercast
10:15 AM37.4 °F33.8 °F87 %29.99 in9.0 miWSW (240°)12.7 mphOvercast
10:35 AM39.2 °F33.8 °F81 %29.99 in9.0 miWSW (240°)11.5 mphOvercast
10:55 AM39.2 °F33.8 °F81 %29.99 in10.0 miWest (270°)11.5 mphOvercast
11:16 AM41.0 °F33.8 °F76 %29.99 in10.0 miWest (270°)12.7 mph17.3 mphOvercast
11:35 AM41.0 °F33.8 °F76 %29.99 in10.0 miWest (280°)10.4 mph16.1 mphOvercast
11:55 AM42.8 °F35.6 °F76 %29.98 in10.0 miWest (260°)12.7 mphOvercast
12:35 PM44.6 °F35.6 °F71 %29.97 in10.0 miWSW (250°)9.2 mphScattered Clouds
12:55 PM44.6 °F33.8 °F66 %29.97 in10.0 miWSW (250°)10.4 mph17.3 mphScattered Clouds
1:15 PM46.4 °F33.8 °F62 %29.96 in10.0 miWest (280°)12.7 mphPartly Cloudy
1:36 PM46.4 °F33.8 °F62 %29.95 in10.0 miWSW (250°)11.5 mphClear
1:55 PM48.2 °F33.8 °F58 %29.94 in10.0 miWest (260°)12.7 mphClear
2:15 PM48.2 °F32.0 °F54 %29.94 in10.0 miWSW (250°)13.8 mphClear
2:55 PM50.0 °F30.2 °F47 %29.93 in10.0 miWest (270°)12.7 mph17.3 mphClear
3:15 PM50.0 °F32.0 °F50 %29.93 in10.0 miWest (270°)11.5 mphClear
3:35 PM50.0 °F30.2 °F47 %29.93 in10.0 miWNW (290°)9.2 mphClear
3:55 PM50.0 °F30.2 °F47 %29.93 in10.0 miWest (280°)10.4 mphClear
4:15 PM50.0 °F30.2 °F47 %29.92 in10.0 miWest (260°)9.2 mphClear
4:35 PM50.0 °F30.2 °F47 %29.92 in10.0 miWSW (240°)9.2 mphClear
4:56 PM48.2 °F30.2 °F50 %29.92 in10.0 miWest (260°)10.4 mphClear
5:15 PM48.2 °F30.2 °F50 %29.92 in10.0 miWest (260°)8.1 mphClear
5:35 PM48.2 °F28.4 °F46 %29.92 in10.0 miWest (260°)8.1 mphClear
5:55 PM46.4 °F28.4 °F50 %29.92 in10.0 miWSW (250°)6.9 mphClear
6:15 PM44.6 °F30.2 °F57 %29.92 in10.0 miSW (230°)3.5 mphClear
6:35 PM44.6 °F28.4 °F53 %29.92 in10.0 miSW (230°)3.5 mphClear
6:55 PM42.8 °F30.2 °F61 %29.92 in10.0 miSW (220°)4.6 mphClear
7:35 PM42.8 °F30.2 °F61 %29.93 in10.0 miSSW (210°)3.5 mphClear
7:55 PM42.8 °F30.2 °F61 %29.93 in10.0 miSW (220°)4.6 mphClear
8:15 PM41.0 °F30.2 °F65 %29.93 in10.0 miSSW (210°)3.5 mphClear
8:36 PM41.0 °F28.4 °F61 %29.93 in10.0 miSSW (210°)3.5 mphClear
8:55 PM39.2 °F28.4 °F65 %29.93 in10.0 miSSW (210°)4.6 mphClear
9:15 PM39.2 °F30.2 °F70 %29.93 in10.0 miSSW (200°)3.5 mphClear
9:55 PM39.2 °F28.4 °F65 %29.94 in10.0 miSSW (210°)3.5 mphClear
10:15 PM37.4 °F28.4 °F70 %29.94 in10.0 miSSW (210°)4.6 mphClear
10:35 PM37.4 °F28.4 °F70 %29.94 in10.0 miSSW (210°)5.8 mphClear
11:15 PM37.4 °F28.4 °F70 %29.94 in10.0 miSW (220°)6.9 mphClear
11:35 PM37.4 °F28.4 °F70 %29.94 in10.0 miSW (230°)6.9 mphClear
11:55 PM37.4 °F28.4 °F70 %29.94 in10.0 miSW (220°)6.9 mphClear
Hourly data recorded from KVBT, located miles away from Bentonville, Arkansas







STORIES FROM OUR PARTNERS